Temperature
3 3 3 4 4 4 4 4 4 4 4 4 4 4 4 4 4 4 4 4 4 4 4 4 4 4 4 4 4 4 4 4 3 4 4 4 4 4 4 4 4 4 4
3 3 3 3 3 3 4 4 4 4 4 3 3 4 4 4 4 4 4 4 4 3 3 3 3 3 3 3 3 4 4 3 3 3 4 4 4 4 4 4 4 4 4
3 3 3 3 3 3 3 3 3 3 3 3 3 3 3 3 3 3 3 3 3 3 3 3 3 3 3 3 3 3 3 3 3 3 3 3 3 3 3 3 3 3 4
2 2 2 2 3 3 3 3 3 3 3 3 3 3 3 3 3 3 3 3 3 3 2 2 2 2 2 2 2 2 2 2 2 3 3 3 3 3 3 3 3 3 3
2 2 2 2 2 2 2 2 2 2 2 2 3 3 3 3 3 2 2 2 2 2 2 2 2 2 2 2 2 2 2 2 2 2 2 2 2 2 2 2 2 2 3
2 2 2 2 2 2 2 2 2 2 2 2 2 2 2 2 2 2 2 2 2 1 1 1 1 1 1 1 1 1 1 2 2 2 2 2 2 1 1 1 1 1 2
1 1 1 1 1 1 2 2 2 1 1 1 2 2 2 2 2 2 1 1 1 1 1 1 0 0 0 1 1 1 1 1 1 1 1 1 1 1 1 1 1 1 1
1 1 1 1 1 1 1 1 1 1 1 1 1 1 1 1 1 1 1 1 1 0 0 0 0 -0 -0 -0 0 0 0 1 1 1 1 1 1 1 1 0 0 0 1
1 1 1 1 1 1 1 1 1 1 1 1 0 1 1 1 1 0 0 0 -0 -0 -0 -0 -0 -1 -1 -0 -0 -0 -0 -0 0 0 0 0 0 0 0 0 0 -0 0
0 1 1 1 1 1 0 0 0 0 0 0 0 0 0 0 0 -0 -0 -0 -0 -1 -1 -1 -1 -1 -1 -1 -1 -1 -1 -1 -0 -0 0 0 0 0 0 -0 -0 -1 -1
0 0 0 0 0 0 0 0 0 -0 -0 -0 -0 -0 -0 -1 -1 -1 -1 -1 -1 -1 -1 -1 -2 -1 -1 -1 -1 -1 -1 -1 -1 -1 -0 -1 -0 -0 -0 -0 -1 -1 -1
-0 -0 -0 -0 -0 -0 -0 -0 -0 -1 -1 -1 -1 -1 -1 -1 -1 -1 -1 -1 -1 -1 -2 -2 -2 -2 -2 -1 -1 -1 -1 -1 -1 -1 -1 -1 -1 -1 -1 -1 -1 -1 -1
-1 -1 -1 -1 -1 -1 -1 -1 -1 -1 -2 -2 -2 -2 -2 -2 -2 -2 -2 -2 -2 -2 -2 -2 -2 -2 -2 -2 -2 -2 -2 -2 -2 -2 -2 -2 -2 -1 -1 -1 -1 -1 -1
-1 -2 -2 -1 -1 -1 -1 -2 -2 -2 -2 -3 -3 -3 -3 -3 -3 -2 -2 -2 -2 -2 -2 -2 -2 -2 -2 -2 -2 -2 -2 -2 -2 -2 -2 -2 -2 -2 -2 -2 -2 -2 -2
-2 -2 -2 -2 -2 -2 -2 -2 -2 -2 -3 -3 -3 -3 -3 -3 -3 -3 -3 -3 -3 -3 -3 -3 -3 -3 -3 -3 -3 -3 -3 -3 -3 -3 -3 -3 -3 -3 -3 -3 -2 -2 -3
-2 -2 -2 -3 -2 -3 -3 -3 -3 -3 -3 -3 -3 -3 -3 -3 -3 -3 -3 -3 -3 -3 -3 -4 -4 -4 -4 -4 -4 -4 -4 -4 -4 -3 -3 -3 -3 -3 -3 -3 -3 -3 -3
-3 -3 -3 -3 -3 -3 -3 -3 -3 -3 -3 -3 -3 -3 -4 -4 -4 -4 -3 -4 -4 -4 -4 -4 -4 -4 -4 -4 -4 -4 -4 -4 -4 -4 -4 -4 -4 -4 -4 -4 -4 -4 -4
-3 -3 -3 -3 -3 -3 -3 -3 -4 -4 -4 -4 -4 -4 -4 -4 -4 -4 -4 -4 -4 -4 -4 -4 -5 -5 -5 -5 -5 -5 -5 -5 -5 -5 -4 -4 -4 -4 -4 -4 -4 -4 -4
-3 -4 -4 -4 -4 -4 -4 -4 -4 -4 -4 -5 -4 -4 -4 -4 -4 -4 -4 -4 -4 -4 -5 -5 -5 -5 -5 -5 -5 -5 -5 -5 -5 -5 -5 -5 -5 -5 -5 -5 -5 -5 -4
-4 -4 -4 -4 -4 -4 -4 -4 -5 -5 -5 -5 -5 -5 -5 -5 -5 -5 -5 -5 -5 -5 -5 -5 -5 -5 -6 -6 -5 -5 -5 -5 -5 -5 -5 -5 -5 -5 -5 -5 -5 -5 -5
-4 -4 -4 -4 -4 -4 -5 -5 -5 -5 -5 -5 -5 -5 -5 -6 -6 -5 -5 -5 -5 -5 -5 -6 -6 -6 -6 -6 -6 -6 -6 -6 -6 -6 -6 -5 -5 -5 -5 -5 -5 -5 -5
-5 -5 -5 -5 -5 -5 -5 -5 -5 -6 -6 -6 -6 -6 -6 -6 -6 -6 -6 -6 -6 -6 -6 -6 -6 -6 -6 -6 -6 -6 -6 -6 -6 -6 -6 -6 -6 -5 -5 -5 -5 -5 -5
-5 -5 -5 -5 -5 -6 -6 -6 -6 -6 -6 -6 -6 -6 -6 -6 -6 -6 -6 -6 -6 -6 -6 -6 -6 -6 -6 -6 -6 -6 -6 -6 -6 -6 -6 -6 -6 -6 -6 -6 -5 -5 -5
-5 -5 -5 -6 -6 -6 -6 -6 -6 -6 -6 -6 -6 -6 -6 -6 -6 -6 -6 -6 -6 -6 -6 -6 -6 -6 -6 -7 -7 -7 -6 -6 -6 -6 -6 -6 -6 -6 -6 -6 -6 -6 -6
-5 -6 -6 -6 -6 -6 -6 -6 -6 -6 -6 -6 -6 -6 -6 -6 -7 -7 -7 -7 -7 -7 -6 -6 -6 -6 -6 -7 -7 -6 -6 -6 -6 -6 -6 -6 -6 -6 -6 -6 -6 -6 -6
-6 -6 -6 -6 -6 -6 -7 -7 -7 -7 -7 -7 -7 -7 -7 -7 -7 -7 -7 -7 -7 -7 -7 -7 -7 -7 -7 -7 -7 -7 -7 -7 -7 -7 -7 -7 -7 -7 -6 -6 -6 -6 -6
Wind_Speed
5 4 4 4 4 4 3 3 3 3 3 3 4 4 3 3 3 3 4 3 3 3 2 2 2 2 1 2 2 2 3 3 4 4 3 4 5 5 6 6 7 7 6
4 3 3 4 4 3 2 2 2 3 3 3 4 3 3 3 3 3 3 3 3 3 2 2 2 2 2 2 2 2 3 3 4 4 4 4 5 5 5 6 6 6 6
3 3 3 3 3 2 2 2 2 2 2 3 3 3 3 3 3 3 3 3 2 2 2 2 2 2 2 2 2 2 2 2 3 3 4 4 4 4 5 5 5 5 6
3 3 3 3 2 2 2 2 2 2 2 2 2 3 3 2 2 3 2 2 2 1 1 1 2 2 2 2 2 2 2 2 2 2 3 3 4 4 4 5 5 5 6
4 3 4 3 2 2 2 1 1 1 1 2 2 2 2 2 2 3 2 2 2 2 1 1 1 1 2 2 2 2 2 2 2 2 2 3 3 4 4 4 6 6 6
4 4 3 2 2 1 1 0 0 0 1 1 1 1 1 1 2 3 2 2 2 2 1 0 0 0 1 1 2 3 2 2 2 2 3 3 4 4 4 4 5 5 5
3 3 3 2 2 1 0 0 0 0 0 1 1 0 0 1 2 2 2 2 2 2 1 1 0 0 1 1 1 2 2 3 3 3 4 4 4 4 5 5 5 6 6
3 3 2 2 2 1 0 0 0 0 0 1 1 1 0 0 1 1 1 2 2 1 1 0 0 1 1 1 2 2 3 3 3 3 3 4 4 4 4 5 5 6 6
2 2 2 2 2 1 0 1 0 0 0 0 1 1 1 1 1 1 1 1 2 1 0 0 0 0 1 2 2 2 2 2 3 3 4 4 5 5 5 3 3 4 5
3 3 2 1 1 1 1 1 0 0 0 1 1 1 1 1 2 2 2 1 1 1 1 1 0 1 1 2 1 1 2 3 3 3 2 3 3 3 3 3 3 4 4
2 2 2 1 1 1 1 0 0 0 1 1 1 1 1 1 2 2 2 1 1 1 1 0 0 1 2 2 2 1 2 3 2 2 2 3 3 3 3 3 3 3 4
2 2 2 2 1 1 0 0 0 0 1 1 1 1 1 1 2 2 3 2 2 1 1 0 0 1 2 2 2 2 3 2 1 2 2 3 3 3 4 4 4 4 4
1 2 2 2 2 1 0 1 1 1 0 0 1 1 1 1 2 3 3 3 2 1 1 1 1 2 2 2 3 3 2 1 2 2 2 3 3 4 4 4 4 4 4
1 1 1 1 2 2 1 1 1 0 0 0 0 0 1 1 1 2 1 2 2 2 1 2 3 3 3 3 3 3 2 2 2 2 3 3 3 3 3 3 4 4 4
1 1 1 1 1 1 1 1 1 0 0 0 0 0 1 0 1 2 2 1 1 1 1 1 1 2 2 2 2 3 3 3 3 3 3 3 3 3 4 4 4 4 3
0 1 1 1 0 1 1 2 3 2 3 2 2 1 1 1 2 2 2 2 2 3 2 1 1 1 1 2 2 2 3 3 3 3 3 3 3 4 4 4 4 4 4
1 1 1 0 0 0 0 1 1 3 4 4 3 2 1 1 2 2 2 1 2 2 2 1 1 1 1 1 2 2 2 3 3 3 3 3 4 4 4 4 4 4 4
1 1 1 1 0 0 0 0 0 1 1 2 2 2 2 2 2 2 1 1 1 2 1 1 0 0 1 1 2 2 2 2 3 3 3 3 4 4 4 4 4 4 4
1 1 1 0 0 0 0 0 0 0 0 1 1 1 2 2 2 2 1 1 1 1 0 0 0 0 1 1 2 2 2 2 3 3 3 3 3 4 4 4 4 5 5
1 1 0 0 0 0 0 0 1 0 0 0 1 1 1 1 1 1 1 0 0 0 0 0 1 1 1 1 1 2 2 2 3 3 3 3 4 4 4 5 5 5 4
1 0 1 0 0 0 0 0 0 0 0 1 1 1 1 1 1 1 1 1 0 1 1 1 1 1 1 1 1 2 2 2 3 3 3 3 4 4 4 4 4 4 4
1 1 1 1 1 1 1 0 1 1 1 1 1 1 1 1 1 1 1 1 1 1 1 1 2 2 2 2 2 2 3 3 3 3 3 4 4 4 4 4 4 4 4
1 0 0 0 1 1 1 0 1 1 1 1 1 1 1 1 1 1 1 1 1 1 2 2 2 2 2 3 3 3 3 3 3 4 4 4 4 4 4 4 5 5 5
1 1 1 1 1 1 1 1 1 1 1 1 1 1 1 1 1 2 2 2 2 2 2 2 3 3 4 3 3 4 4 4 4 4 4 4 4 4 4 4 5 5 5
1 1 1 1 1 1 1 1 1 1 1 1 2 2 2 2 2 2 2 2 2 2 3 3 3 3 4 5 5 5 5 6 6 5 4 4 4 4 5 5 4 5 4
1 1 1 1 2 2 2 2 2 2 2 2 2 2 2 2 2 2 2 2 2 2 3 3 4 4 5 5 5 6 6 7 6 6 4 3 4 4 4 4 5 4 4
Wind_Direction
288 269 268 273 270 252 240 245 246 245 239 241 238 226 227 229 230 226 231 233 226 214 214 219 232 243 238 249 254 254 259 263 270 291 300 303 306 312 319 324 324 321 321
298 293 283 273 268 267 258 252 253 249 245 239 229 218 219 225 228 225 225 225 213 205 219 227 231 236 246 251 260 261 268 272 272 282 297 304 305 311 314 317 326 326 323
307 309 296 286 281 274 273 261 242 238 241 236 221 217 219 220 219 220 219 219 209 205 220 230 233 237 249 259 266 267 277 279 274 267 287 306 309 316 319 321 326 327 329
306 302 298 286 285 286 278 260 240 235 235 228 226 217 217 218 212 215 219 203 185 187 216 235 241 242 249 266 277 274 285 295 280 269 282 305 313 318 320 323 325 328 327
317 309 302 298 296 290 281 267 257 251 248 236 226 222 215 209 210 215 204 187 178 170 175 209 261 301 312 295 296 302 299 296 293 286 287 303 312 319 319 321 319 322 323
311 304 309 307 293 287 287 263 243 283 279 250 227 210 211 208 203 203 198 184 178 170 176 189 287 312 11 5 337 330 321 299 293 282 287 289 301 308 313 313 316 319 318
305 307 314 304 291 286 275 184 192 319 325 310 312 320 246 200 185 181 181 185 174 169 170 183 219 333 320 319 343 339 332 321 297 283 274 284 293 299 300 302 306 309 305
304 314 317 304 294 299 312 261 276 280 266 297 324 350 27 139 164 163 149 166 152 141 145 199 246 341 341 339 334 340 335 332 317 294 284 293 299 303 298 295 300 304 301
316 318 313 303 297 291 255 258 267 250 251 311 308 357 14 78 78 101 88 131 129 117 79 33 16 347 7 334 329 331 333 343 355 337 322 315 314 315 314 302 301 306 309
314 319 323 310 293 283 269 252 237 173 108 36 23 359 3 51 59 63 69 113 113 94 79 70 82 5 355 346 332 316 320 326 330 335 339 343 332 323 318 296 286 288 302
321 334 344 334 302 280 276 249 135 89 61 40 35 27 57 66 69 67 58 80 99 98 103 63 54 24 358 348 338 332 322 323 319 324 329 336 336 333 330 321 301 282 284
344 355 357 355 350 297 251 98 77 87 73 53 63 70 62 63 64 64 51 56 69 89 89 43 24 3 4 5 6 1 345 334 338 335 335 337 337 336 333 326 318 302 282
356 359 8 13 13 19 86 118 110 87 67 30 65 81 51 41 54 56 53 48 58 62 78 65 47 50 32 30 35 20 3 358 353 344 337 332 330 323 326 330 333 330 318
344 353 12 26 25 28 33 55 80 67 92 51 31 100 77 48 35 33 39 63 73 69 79 87 75 61 48 41 29 23 14 6 352 342 332 328 327 328 330 332 329 334 331
337 352 8 25 35 35 32 22 7 3 327 295 293 242 187 137 13 11 29 51 55 85 93 84 66 54 38 29 24 20 13 6 1 349 340 337 336 337 334 334 329 328 326
304 329 344 359 36 73 68 48 44 41 35 31 29 11 21 43 22 38 52 68 93 115 117 100 73 48 27 13 8 6 3 358 352 341 338 337 333 331 328 330 329 327 327
256 257 268 275 223 128 102 86 56 45 45 48 53 58 66 62 48 48 61 80 109 122 114 100 70 33 13 353 345 343 338 340 338 335 331 330 326 323 324 327 329 327 326
274 263 260 244 226 213 187 155 93 69 29 29 48 61 59 54 46 51 67 83 94 83 90 102 86 345 337 327 323 326 330 333 334 329 325 325 325 320 318 319 320 322 323
273 257 259 268 245 226 178 142 104 78 43 12 18 34 41 36 30 23 29 91 130 111 97 71 343 303 300 305 309 314 319 322 324 323 324 323 322 319 316 318 317 319 320
267 242 221 206 201 187 130 133 115 108 52 324 312 326 344 351 3 11 17 15 207 195 204 259 276 288 294 293 296 303 310 315 318 316 319 321 320 317 315 314 316 318 317
277 214 176 182 188 199 196 196 182 190 250 284 297 320 309 284 258 286 308 315 290 266 255 264 260 265 275 278 281 288 295 300 306 310 311 315 315 314 316 313 311 311 315
254 230 197 195 206 215 223 231 220 220 235 256 287 297 266 246 239 252 262 282 291 282 262 255 260 259 262 262 267 271 277 286 296 304 307 309 311 311 312 314 315 315 315
250 205 182 206 207 214 227 234 234 237 249 264 266 252 237 229 237 252 264 270 272 273 265 256 254 256 265 266 264 262 266 275 285 292 296 299 303 308 311 313 313 311 313
233 217 208 216 220 226 238 249 251 250 248 253 254 253 249 243 248 253 261 266 266 271 268 262 257 254 261 268 266 263 266 274 283 282 285 288 294 300 307 310 309 308 309
235 229 227 231 236 243 249 253 257 260 261 257 252 250 252 252 254 258 262 261 264 265 268 266 259 256 256 263 266 267 270 276 282 283 278 280 288 295 303 308 308 307 308
224 225 233 237 239 244 246 248 251 258 260 258 253 249 248 250 254 259 262 262 267 267 267 267 262 263 264 261 260 267 272 275 275 276 274 275 284 292 302 304 305 305 306
Height
1464 1464 1463 1463 1463 1462 1462 1461 1461 1461 1461 1461 1461 1461 1461 1462 1462 1463 1463 1464 1465 1465 1466 1466 1467 1467 1468 1468 1468 1468 1468 1468 1467 1465 1465 1464 1463 1461 1460 1458 1456 1455 1453
1461 1460 1460 1460 1459 1459 1458 1458 1458 1458 1458 1458 1458 1458 1458 1459 1459 1459 1460 1461 1461 1462 1463 1464 1464 1465 1465 1465 1465 1465 1465 1465 1464 1462 1461 1460 1460 1458 1457 1455 1453 1452 1450
1458 1457 1457 1457 1456 1456 1455 1455 1455 1455 1455 1455 1455 1455 1455 1456 1456 1456 1457 1458 1458 1459 1460 1461 1461 1462 1462 1462 1462 1462 1462 1462 1461 1460 1458 1457 1456 1456 1454 1452 1451 1449 1447
1456 1455 1455 1454 1453 1453 1453 1453 1452 1452 1452 1452 1453 1453 1453 1453 1453 1454 1454 1455 1456 1457 1458 1458 1459 1459 1459 1459 1459 1459 1459 1459 1459 1458 1456 1455 1454 1453 1451 1449 1447 1446 1444
1454 1453 1452 1451 1450 1450 1450 1450 1449 1449 1450 1450 1450 1450 1450 1450 1450 1450 1452 1453 1453 1454 1455 1456 1456 1456 1456 1457 1457 1456 1457 1456 1456 1455 1453 1452 1451 1450 1448 1447 1445 1443 1441
1452 1451 1450 1449 1448 1448 1448 1448 1447 1447 1447 1448 1447 1447 1447 1447 1448 1449 1449 1450 1451 1452 1453 1453 1453 1454 1454 1455 1455 1454 1454 1454 1453 1452 1451 1450 1449 1448 1446 1445 1443 1441 1439
1451 1450 1448 1447 1447 1446 1446 1445 1445 1445 1445 1445 1445 1445 1445 1445 1446 1447 1447 1448 1448 1449 1450 1451 1451 1452 1452 1452 1452 1451 1451 1451 1451 1451 1449 1448 1447 1445 1444 1443 1441 1440 1438
1449 1448 1447 1446 1445 1444 1443 1443 1443 1443 1443 1443 1443 1443 1443 1444 1445 1445 1446 1446 1446 1447 1448 1448 1449 1449 1450 1450 1449 1449 1449 1448 1448 1448 1447 1446 1445 1443 1442 1441 1439 1437 1435
1447 1446 1445 1444 1443 1442 1442 1442 1442 1441 1441 1441 1441 1441 1442 1442 1443 1444 1444 1444 1444 1445 1446 1447 1447 1447 1447 1447 1447 1447 1446 1446 1446 1445 1444 1443 1442 1441 1439 1438 1437 1435 1433
1446 1445 1444 1443 1442 1441 1441 1441 1440 1440 1440 1439 1439 1440 1440 1441 1442 1442 1443 1443 1443 1444 1444 1445 1445 1446 1446 1445 1445 1445 1444 1443 1443 1442 1441 1440 1439 1437 1437 1436 1435 1433 1431
1444 1443 1442 1442 1441 1440 1440 1439 1438 1438 1438 1437 1438 1438 1439 1440 1441 1441 1442 1442 1442 1442 1443 1443 1443 1444 1444 1443 1443 1443 1442 1442 1440 1439 1438 1437 1436 1435 1434 1433 1432 1431 1430
1443 1442 1441 1440 1439 1439 1438 1438 1437 1437 1436 1436 1436 1437 1438 1439 1440 1440 1441 1441 1441 1441 1441 1441 1441 1442 1442 1441 1441 1441 1441 1440 1439 1438 1437 1436 1434 1433 1432 1431 1429 1428 1427
1441 1440 1439 1439 1438 1438 1437 1437 1436 1436 1436 1436 1436 1436 1437 1438 1439 1439 1440 1440 1440 1440 1440 1440 1440 1440 1440 1440 1439 1439 1439 1438 1437 1436 1435 1434 1433 1432 1430 1429 1427 1426 1425
1440 1439 1438 1438 1437 1437 1436 1436 1436 1435 1435 1435 1435 1436 1436 1437 1438 1438 1438 1439 1439 1439 1439 1439 1439 1439 1439 1439 1438 1437 1437 1437 1436 1435 1434 1433 1432 1430 1429 1427 1425 1424 1423
1439 1438 1437 1437 1436 1436 1435 1435 1435 1435 1435 1435 1435 1435 1435 1436 1437 1437 1437 1437 1437 1438 1438 1438 1438 1438 1438 1437 1436 1436 1436 1435 1435 1434 1433 1431 1430 1429 1427 1426 1424 1423 1421
1437 1437 1436 1436 1435 1435 1435 1434 1434 1434 1434 1434 1434 1434 1435 1435 1436 1436 1436 1436 1437 1437 1437 1437 1437 1437 1436 1436 1435 1435 1434 1434 1433 1432 1431 1430 1429 1428 1426 1425 1423 1422 1420
1436 1435 1435 1435 1434 1434 1433 1433 1433 1433 1433 1433 1433 1434 1434 1434 1435 1435 1435 1435 1435 1436 1436 1436 1436 1436 1435 1435 1434 1434 1433 1433 1432 1431 1431 1430 1428 1427 1425 1424 1423 1421 1419
1434 1434 1433 1433 1433 1433 1432 1432 1432 1432 1432 1432 1432 1433 1433 1433 1433 1433 1434 1434 1434 1434 1434 1435 1434 1434 1434 1434 1433 1433 1432 1431 1431 1430 1429 1428 1427 1426 1424 1423 1421 1420 1418
1433 1432 1432 1432 1432 1432 1431 1432 1431 1431 1431 1431 1431 1431 1431 1431 1432 1432 1432 1433 1433 1433 1433 1433 1433 1433 1433 1433 1432 1432 1431 1430 1430 1429 1428 1427 1426 1424 1423 1422 1420 1418 1417
1431 1431 1431 1430 1430 1430 1430 1430 1430 1430 1430 1430 1430 1430 1430 1430 1430 1431 1431 1431 1431 1432 1432 1432 1432 1431 1431 1431 1431 1430 1430 1429 1429 1428 1427 1426 1424 1423 1422 1420 1419 1417 1416
1430 1429 1429 1429 1429 1429 1429 1429 1429 1429 1429 1429 1429 1429 1429 1429 1429 1429 1429 1430 1430 1430 1430 1430 1430 1430 1430 1429 1429 1429 1428 1428 1427 1426 1425 1424 1423 1422 1421 1419 1418 1416 1415
1428 1428 1428 1427 1428 1428 1428 1428 1428 1428 1428 1427 1427 1427 1427 1427 1427 1427 1428 1428 1428 1428 1428 1428 1428 1428 1428 1427 1427 1427 1426 1426 1425 1425 1424 1423 1422 1421 1420 1418 1417 1416 1414
1427 1426 1426 1426 1426 1426 1426 1426 1426 1426 1426 1426 1426 1426 1426 1425 1425 1425 1426 1426 1426 1426 1426 1426 1426 1426 1425 1425 1425 1425 1425 1424 1424 1423 1422 1421 1420 1419 1418 1417 1416 1415 1413
1425 1425 1425 1425 1425 1424 1424 1424 1424 1424 1424 1424 1424 1424 1424 1424 1424 1424 1424 1424 1424 1424 1424 1424 1424 1424 1423 1423 1423 1423 1423 1422 1422 1421 1420 1420 1419 1418 1417 1416 1415 1413 1412
1424 1423 1423 1423 1423 1423 1423 1422 1422 1422 1422 1422 1422 1422 1422 1422 1422 1422 1422 1422 1422 1421 1421 1421 1421 1421 1421 1421 1421 1420 1420 1420 1420 1419 1419 1418 1417 1416 1415 1414 1413 1412 1411
1422 1422 1421 1421 1421 1421 1421 1420 1420 1420 1420 1420 1420 1420 1420 1420 1420 1420 1420 1420 1419 1419 1419 1419 1419 1419 1419 1418 1418 1418 1418 1418 1417 1417 1417 1416 1415 1415 1414 1413 1412 1411 1410